Weather History for KLWV - March, 2013

Change the Weather History Date:

Friday, March 22, 2013

  Actual Average Record
Temperature  
Mean Temperature 31 °F 47 °F  
Max Temperature 41 °F 58 °F - ()
Min Temperature 20 °F 36 °F - ()
Degree Days  
Heating Degree Days 34 18  
Month to date heating degree days 611 473  
Since 1 July heating degree days 4307 4148  
Cooling Degree Days 0 0  
Month to date cooling degree days 0 0  
Year to date cooling degree days 0 0  
Moisture  
Dew Point 20 °F    
Average Humidity 66    
Maximum Humidity 92    
Minimum Humidity 40    
Precipitation  
Precipitation 0.00 in 0.14 in - ()
Month to date precipitation 2.61 2.13  
Year to date precipitation 11.17 6.52  
Sea Level Pressure  
Sea Level Pressure 30.07 in    
Wind  
Wind Speed 3 mph (SE)    
Max Wind Speed 12 mph    
Max Gust Speed 13 mph    
Visibility 9 miles    
Events      
T = Trace of Precipitation, MM = Missing Value Source: NWS Daily Summary

Daily Weather History Graph

Daily Weather History Graph

Search for Another Location

Airport or City:

Trip Planner

Search our weather history database for the weather conditions in past years. The results will help you decide how hot, cold, wet, or windy it might be!

Date:

Astronomy

Mar. 22, 2013 Rise Set
Actual Time 6:50 AM CDT 7:04 PM CDT
Civil Twilight 6:23 AM CDT 7:31 PM CDT
Nautical Twilight 5:52 AM CDT 8:02 PM CDT
Astronomical Twilight 5:21 AM CDT 8:34 PM CDT
Moon 2:33 PM CDT (3/22) 3:48 AM CDT (3/22)
Length of Visible Light 13h 07m
Length of Day
12h 14m
Waxing Gibbous, 77% of the Moon is Illuminated
Mar 22
Waxing Gibbous
Mar 27
Full
Apr 2
Last Quarter
Apr 10
New
Apr 18
First Quarter

Hourly Weather History & Observations

Time (CDT) Temp. Windchill Dew Point Humidity Pressure Visibility Wind Dir Wind Speed Gust Speed Precip Events Conditions
12:53 AM 24.1 °F - 19.9 °F 84% 30.07 in 10.0 mi Calm Calm - N/A   Clear
1:53 AM 25.0 °F - 17.1 °F 72% 30.08 in 9.0 mi Calm Calm - N/A   Clear
2:53 AM 23.0 °F - 19.0 °F 85% 30.07 in 9.0 mi Calm Calm - N/A   Clear
3:53 AM 23.0 °F 18.4 °F 19.9 °F 88% 30.07 in 9.0 mi NNE 3.5 mph - N/A   Clear
4:53 AM 21.9 °F 17.2 °F 19.9 °F 92% 30.07 in 7.0 mi NNE 3.5 mph - N/A   Clear
5:53 AM 21.0 °F - 19.0 °F 92% 30.08 in 7.0 mi Calm Calm - N/A   Clear
6:53 AM 21.9 °F 17.2 °F 19.9 °F 92% 30.09 in 5.0 mi NNE 3.5 mph - N/A   Clear
7:53 AM 26.1 °F 21.9 °F 21.0 °F 81% 30.11 in 6.0 mi NE 3.5 mph - N/A   Haze
8:53 AM 30.0 °F 23.2 °F 21.9 °F 72% 30.10 in 7.0 mi East 6.9 mph - N/A   Clear
9:53 AM 34.0 °F 26.0 °F 16.0 °F 48% 30.11 in 10.0 mi ESE 10.4 mph - N/A   Mostly Cloudy
10:53 AM 37.0 °F 33.3 °F 16.0 °F 42% 30.10 in 10.0 mi East 4.6 mph - N/A   Scattered Clouds
11:53 AM 37.9 °F 33.5 °F 17.1 °F 43% 30.09 in 10.0 mi SSE 5.8 mph - N/A   Mostly Cloudy
12:53 PM 39.0 °F 34.8 °F 17.1 °F 41% 30.08 in 10.0 mi South 5.8 mph - N/A   Overcast
1:53 PM 39.0 °F 35.7 °F 17.1 °F 41% 30.06 in 10.0 mi SE 4.6 mph - N/A   Overcast
2:53 PM 41.0 °F 37.1 °F 19.0 °F 41% 30.04 in 10.0 mi East 5.8 mph - N/A   Overcast
3:53 PM 39.9 °F 34.5 °F 18.0 °F 41% 30.04 in 10.0 mi SSW 8.1 mph - N/A   Overcast
4:53 PM 39.9 °F 35.1 °F 18.0 °F 41% 30.05 in 10.0 mi South 6.9 mph - N/A   Overcast
5:53 PM 39.9 °F 37.8 °F 18.0 °F 41% 30.04 in 10.0 mi SSW 3.5 mph - N/A   Overcast
6:53 PM 39.0 °F 36.8 °F 21.9 °F 50% 30.05 in 10.0 mi SSW 3.5 mph - N/A   Overcast
7:53 PM 37.9 °F - 19.9 °F 48% 30.05 in 10.0 mi Calm Calm - N/A   Overcast
8:53 PM 37.9 °F - 21.9 °F 53% 30.06 in 10.0 mi Calm Calm - N/A   Overcast
9:53 PM 37.0 °F - 27.0 °F 67% 30.06 in 10.0 mi Calm Calm - N/A   Overcast
10:53 PM 37.9 °F - 26.1 °F 62% 30.06 in 10.0 mi Calm Calm - N/A   Overcast
11:53 PM 37.9 °F - 27.0 °F 65% 30.06 in 10.0 mi Calm Calm - N/A   Overcast